Weather in Siedove

Ukraine / Donetsk Region     47°04′25″N   38°09′30″E
temp.,
°C
wind,
m/s
gust,
m/s
humid.,
%
clouds,
%
prec.,
mm/h
press.,
hPa
HPBL,
m
20 june, sun
sun2000:00+24ene13196664 0.0 1014490
03:00+23ene13196385 0.0 1013556
06:00+22ene121661100 0.0 1014593
09:00+22ene121763100 0.0 1013649
12:00+23e11146555 1.0 1014528
15:00+24ene9136944 1.0 1013193
18:00+25ene69702 0.0 101284
21:00+24nne6974100 0.0 1011104
21 june, mon
mon2100:00+25e1014740 0.0 1010239
03:00+23e913700 0.0 1011341
06:00+22e813630 0.0 1012409
09:00+22e710682 0.0 1012392
12:00+24ene812702 0.0 1012241
15:00+25ene710690 0.0 1011114
18:00+26ene686761 0.0 101063
21:00+25e101568100 0.0 1010179
22 june, tue
tue2200:00+24e8146740 0.0 1011246
03:00+24e9146569 0.0 1011285
06:00+22e913625 0.3 1012365
09:00+22e812685 0.3 1012418
12:00+24ene711700 0.0 1012184
15:00+25ene68690 0.0 101275
18:00+27ne33642 0.0 101013
21:00+25ene6877100 0.0 101073
23 june, wed
wed2300:00+24se467998 0.0 101171
03:00+24ese1283100 0.0 101119
06:00+23e7879100 0.0 1013139
09:00+23e7874100 0.1 1014179
12:00+24e69704 0.0 1014122
15:00+25e576814 0.0 101365
18:00+27ne44675 0.0 101326
21:00+26nne711732 0.0 1012120
24 june, thu
thu2400:00+25ene101566100 0.0 1012195
03:00+24e91269100 0.0 1012162
06:00+23e81067100 0.0 1014210
09:00+23e6867100 0.0 1015225
12:00+24ene556793 0.0 101675
15:00+25ene4664100 0.0 101548
18:00+26ene336499 0.0 101417
21:00+26ne3366100 0.0 101415